"Pseudo-MPEC" for P22fUQs

Created 2025 Oct 21 17:35:21 UT using Find_Orb

Click here for an explanation of pseudo-MPECs

 
 Astrometry: 
     P22fUQs* C2025 09 29.31393823 36 27.340+30 40 53.77   ~9TKK 23.41wXNEOCPF52
     P22fUQs  C2025 09 29.32488423 36 26.595+30 40 48.10   ~9TKK 22.46wXNEOCPF52
     P22fUQs  C2025 09 29.33585523 36 25.814+30 40 42.29   ~9TKK 22.48wXNEOCPF52
     P22fUQs  C2025 09 29.40132623 36 21.204+30 40 06.96   ~9TMZ 22.43GVNEOCPF51
     P22fUQs  C2025 09 29.40213923 36 21.167+30 40 06.66   ~9TMZ 22.10GVNEOCPF51
     P22fUQs KC2025 09 30.19519823 35 28.43 +30 32 45.9    ~9U5Z 23.0 GVNEOCPH21
     P22fUQs KC2025 09 30.20674923 35 27.66 +30 32 39.5    ~9U5Z 23.1 GVNEOCPH21

Station data:
(F51) Pan-STARRS 1, Haleakala  (N20.707234 W156.255910)  US/Hawaii.
   Observers J. Herman, T. Lowe, P. Minguez, A. Schultz, I. Smith. Measurers
   K. Chambers, T. de Boer, J. Fairlamb, H. Gao, M. Huber, C.-C. Lin, E.
   Magnier, Y. Ramanjooloo, R. Wainscoat, R. Weryk. 1.8-m Ritchey-Chrétien +
   CCD.
(F52) Pan-STARRS 2, Haleakala  (N20.707382 W156.255910)  US/Hawaii.
   Observers J. Herman, T. Lowe, P. Minguez, A. Schultz, I. Smith. Measurers
   K. Chambers, T. de Boer, J. Fairlamb, H. Gao, M. Huber, C.-C. Lin, E.
   Magnier, Y. Ramanjooloo, R. Wainscoat, R. Weryk. 1.8-m Ritchey-Chrétien +
   CCD.
(H21) Astronomical Research Observatory, Westfield  (N39.483054 W87.968270)
   US/Illinois.  Observer R. Holmes. Measurers S. Foglia, L. Buzzi, T.
   Linder, R. Holmes. 0.40-m f/5.32 astrograph + CCD.

Orbital elements:  P22fUQs
   Perihelion 2026 Nov 29.138843 +/- 268 TT =  3:19:56.0 (JD 2461373.638843)
Epoch 2025 Sep 30.0 TT = JDT 2460948.5   Earth MOID: 0.8077      AutoNEOCP
M 210.020694297 +/- 110             (J2000 ecliptic)
n   0.352777235 +/- 0.0672          Peri.  260.651626 +/- 55
a   1.983668121 +/- 0.252           Node   263.033318 +/- 17
e   0.14120691 +/- 0.157            Incl.   17.686094 +/- 1.6
P   2.79385                H 19.72  G  0.15   U 11.0  SR
q 1.703560460 +/- 0.156    Q 2.263775783 +/- 0.864
From 7 observations 2025 Sept. 29-30 (21.4 hr); mean residual 0".16
Residuals in arcseconds: 
250929 F52  .05+  .19-    250929 F51  .35-  .03+    250930 H21  .28+  .02-    
250929 F52  .28+  .03-    250929 F51  .10-  .18+    
250929 F52  .08+  .02+    250930 H21  .03-  .11-    

Ephemerides (geocentric):
Date (UTC) HH   RA             Dec           delta  r     elong  mag " sig PA
---- --------  ------------   ------------  ------ ------ -----  --- --------
2025 10 21 18  23 17 06.919   +26 09 02.20  1.3475 2.2179 141.9 23.0 1685 146
2025 10 21 19  23 17 05.615   +26 08 27.29  1.3477 2.2179 141.9 23.0 1691 146
2025 10 21 20  23 17 04.315   +26 07 52.37  1.3479 2.2178 141.9 23.0 1697 146
2025 10 21 21  23 17 03.019   +26 07 17.45  1.3480 2.2178 141.9 23.0 1703 146
2025 10 21 22  23 17 01.727   +26 06 42.52  1.3482 2.2178 141.8 23.0 1709 146
2025 10 21 23  23 17 00.438   +26 06 07.59  1.3484 2.2177 141.8 23.0 1715 146
2025 10 22 00  23 16 59.153   +26 05 32.65  1.3485 2.2177 141.8 23.0 1721 146
2025 10 22 01  23 16 57.872   +26 04 57.71  1.3487 2.2177 141.7 23.0 1726 146
2025 10 22 02  23 16 56.594   +26 04 22.77  1.3489 2.2176 141.7 23.0 1732 146
2025 10 22 03  23 16 55.320   +26 03 47.82  1.3491 2.2176 141.7 23.0 1738 146
2025 10 22 04  23 16 54.050   +26 03 12.86  1.3492 2.2176 141.7 23.0 1744 146
2025 10 22 05  23 16 52.784   +26 02 37.90  1.3494 2.2175 141.6 23.0 1750 146
2025 10 22 06  23 16 51.521   +26 02 02.94  1.3496 2.2175 141.6 23.0 1756 146
2025 10 22 07  23 16 50.262   +26 01 27.98  1.3498 2.2174 141.6 23.0 1762 146
2025 10 22 08  23 16 49.007   +26 00 53.01  1.3499 2.2174 141.5 23.0 1768 146
2025 10 22 09  23 16 47.756   +26 00 18.03  1.3501 2.2174 141.5 23.0 1774 146
2025 10 22 10  23 16 46.508   +25 59 43.06  1.3503 2.2173 141.5 23.0 1780 146
2025 10 22 11  23 16 45.265   +25 59 08.07  1.3504 2.2173 141.5 23.0 1786 146
2025 10 22 12  23 16 44.025   +25 58 33.09  1.3506 2.2173 141.4 23.0 1792 146
2025 10 22 13  23 16 42.788   +25 57 58.10  1.3508 2.2172 141.4 23.0 1798 146
2025 10 22 14  23 16 41.556   +25 57 23.11  1.3510 2.2172 141.4 23.0 1803 146
2025 10 22 15  23 16 40.327   +25 56 48.11  1.3511 2.2172 141.3 23.0 1809 146
2025 10 22 16  23 16 39.102   +25 56 13.11  1.3513 2.2171 141.3 23.0 1815 146
2025 10 22 17  23 16 37.881   +25 55 38.11  1.3515 2.2171 141.3 23.0 1821 146
2025 10 22 18  23 16 36.663   +25 55 03.11  1.3517 2.2171 141.2 23.0 1827 146
2025 10 22 19  23 16 35.449   +25 54 28.10  1.3519 2.2170 141.2 23.0 1833 146
2025 10 22 20  23 16 34.239   +25 53 53.09  1.3520 2.2170 141.2 23.0 1839 146
2025 10 22 21  23 16 33.033   +25 53 18.07  1.3522 2.2169 141.2 23.0 1845 146
2025 10 22 22  23 16 31.831   +25 52 43.05  1.3524 2.2169 141.1 23.0 1851 146
2025 10 22 23  23 16 30.632   +25 52 08.03  1.3526 2.2169 141.1 23.0 1858 146
2025 10 23 00  23 16 29.437   +25 51 33.01  1.3527 2.2168 141.1 23.0 1864 146
2025 10 23 01  23 16 28.246   +25 50 57.98  1.3529 2.2168 141.0 23.0 1870 146
2025 10 23 02  23 16 27.058   +25 50 22.95  1.3531 2.2168 141.0 23.0 1876 146
2025 10 23 03  23 16 25.875   +25 49 47.92  1.3533 2.2167 141.0 23.0 1882 146
2025 10 23 04  23 16 24.695   +25 49 12.89  1.3535 2.2167 141.0 23.0 1888 147
2025 10 23 05  23 16 23.519   +25 48 37.85  1.3536 2.2167 140.9 23.0 1894 147
2025 10 23 06  23 16 22.347   +25 48 02.81  1.3538 2.2166 140.9 23.0 1900 147
2025 10 23 07  23 16 21.178   +25 47 27.77  1.3540 2.2166 140.9 23.0 1906 147
2025 10 23 08  23 16 20.014   +25 46 52.73  1.3542 2.2166 140.8 23.0 1912 147
2025 10 23 09  23 16 18.853   +25 46 17.68  1.3544 2.2165 140.8 23.0 1918 147
2025 10 23 10  23 16 17.696   +25 45 42.63  1.3546 2.2165 140.8 23.0 1924 147
2025 10 23 11  23 16 16.542   +25 45 07.58  1.3547 2.2165 140.7 23.0 1930 147
2025 10 23 12  23 16 15.393   +25 44 32.53  1.3549 2.2164 140.7 23.0 1937 147
2025 10 23 13  23 16 14.247   +25 43 57.47  1.3551 2.2164 140.7 23.0 1943 147
2025 10 23 14  23 16 13.105   +25 43 22.42  1.3553 2.2163 140.7 23.0 1949 147
2025 10 23 15  23 16 11.967   +25 42 47.36  1.3555 2.2163 140.6 23.0 1955 147
2025 10 23 16  23 16 10.833   +25 42 12.30  1.3557 2.2163 140.6 23.0 1961 147
2025 10 23 17  23 16 09.702   +25 41 37.24  1.3558 2.2162 140.6 23.0 1967 147